ホームページへジャンプ


OAA彗星課報告<2002年2月9日号>


● Comet C/2002 C1(Ikeya-Zhang)
 去る2月1日、静岡県の池谷氏と中国河南省の張氏によって発見された彗星は、2月4日夕、関の観測では全光度8.2m Dia=4′の円板状である。
 次は彗星課の佐藤裕久氏が計算した暫定的な予報で、しばらく夕方の西南の空で4.5等くらいに増光する見込である。
 (眼視発見未だ健在也!!)
T=2002 Mar. 11.699 TT    Peri.= 24.199
             Node =106.419  (2000.0)
q=0.48901 AU             Incl.= 26.749

  2002   R.A.(2000) Decl.   Delta    γ  m1
  00h00m h m
Feb.  5  00 14.94 -15 50.7  1.352  0.930  8.8
Feb. 10  00 23.65 -13 05.5  1.279  0.843  8.3
Feb. 15  00 32.64 -09 59.3  1.199  0.759  7.7
Feb. 20  00 41.58 -06 26.9  1.112  0.678  7.0
Feb. 25  00 49.79 -02 21.8  1.018  0.604  6.3
Mar.  2  00 56.09 +02 22.8  0.918  0.543  5.7
Mar.  7  00 58.47 +07 51.3  0.816  0.502  5.1
Mar. 12  00 54.22 +14 00.1  0.718  0.489  4.7
Mar. 17  00 40.75 +20 30.3  0.634  0.506  4.6
Mar. 22  00 16.95 +26 47.7  0.569  0.550  4.7
Mar. 27  23 43.83 +32 13.4  0.524  0.612  5.0
Apr.  1  23 04.09 +36 19.3  0.498  0.687  5.0



Copyright (C) 2002 Tsutomu Seki. (関勉)